| time (UTC) | temp F | wind direction | speed MPH | gust MPH | rain 1hr in | rain 24hr in | rain mn in | humidity % | barometer mb |
| 20260901121530 | 58 | 247 | 5.0 | 10.0 | 0.00 | 0.02 | 0.00 | 64 | 979.5 |
| 20260901121031 | 58 | 242 | 6.0 | 9.0 | 0.00 | 0.02 | 0.00 | 64 | 979.4 |
| 20260901120528 | 58 | 244 | 5.0 | 9.0 | 0.00 | 0.02 | 0.00 | 64 | 979.5 |
| 20260901120047 | 58 | 360 | 5.0 | 9.0 | 0.00 | 0.02 | 0.00 | 64 | 979.4 |
| 20260901115528 | 58 | 254 | 4.0 | 8.0 | 0.00 | 0.02 | 0.00 | 64 | 979.3 |
| 20260901115032 | 58 | 360 | 3.0 | 10.0 | 0.00 | 0.02 | 0.00 | 64 | 979.1 |
| 20260901114528 | 58 | 242 | 5.0 | 10.0 | 0.00 | 0.02 | 0.00 | 64 | 979.2 |
| 20260901114027 | 58 | 227 | 5.0 | 8.0 | 0.00 | 0.02 | 0.00 | 64 | 979.2 |
| 20260901113526 | 58 | 240 | 4.0 | 9.0 | 0.00 | 0.02 | 0.00 | 63 | 979.1 |
| 20260901113026 | 58 | 360 | 5.0 | 9.0 | 0.00 | 0.02 | 0.00 | 63 | 979.0 |
| 20260901112526 | 58 | 230 | 5.0 | 9.0 | 0.00 | 0.02 | 0.00 | 63 | 978.9 |
| 20260901112028 | 58 | 240 | 5.0 | 9.0 | 0.00 | 0.02 | 0.00 | 63 | 979.0 |
| 20260901111525 | 58 | 231 | 4.0 | 8.0 | 0.00 | 0.02 | 0.00 | 62 | 978.9 |
| 20260901111024 | 58 | 231 | 5.0 | 8.0 | 0.00 | 0.02 | 0.00 | 62 | 979.0 |
| 20260901110524 | 58 | 238 | 5.0 | 9.0 | 0.00 | 0.02 | 0.00 | 62 | 978.9 |
| 20260901110024 | 58 | 244 | 4.0 | 8.0 | 0.00 | 0.02 | 0.00 | 62 | 978.8 |
| 20260901105527 | 58 | 235 | 4.0 | 8.0 | 0.00 | 0.02 | 0.00 | 61 | 978.8 |
| 20260901105027 | 59 | 360 | 4.0 | 10.0 | 0.00 | 0.02 | 0.00 | 61 | 978.7 |
| 20260901104525 | 59 | 236 | 6.0 | 10.0 | 0.00 | 0.02 | 0.00 | 61 | 978.8 |
| 20260901104126 | 59 | 234 | 6.0 | 9.0 | 0.00 | 0.02 | 0.00 | 61 | 978.7 |
| 20260901103529 | 59 | 236 | 6.0 | 9.0 | 0.00 | 0.02 | 0.00 | 61 | 978.8 |
| 20260901103027 | 59 | 240 | 6.0 | 9.0 | 0.00 | 0.02 | 0.00 | 61 | 978.8 |
| 20260901102525 | 59 | 236 | 6.0 | 11.0 | 0.00 | 0.02 | 0.00 | 61 | 978.8 |
| 20260901102022 | 60 | 244 | 6.0 | 11.0 | 0.00 | 0.02 | 0.00 | 61 | 978.7 |
| 20260901101521 | 60 | 242 | 7.0 | 12.0 | 0.00 | 0.02 | 0.00 | 61 | 978.7 |
| 20260901101020 | 60 | 240 | 6.0 | 12.0 | 0.00 | 0.02 | 0.00 | 62 | 978.7 |
| 20260901100521 | 60 | 216 | 6.0 | 10.0 | 0.00 | 0.02 | 0.00 | 63 | 978.6 |
| 20260901100019 | 59 | 229 | 4.0 | 9.0 | 0.00 | 0.02 | 0.00 | 63 | 978.5 |
| 20260901095519 | 59 | 225 | 4.0 | 9.0 | 0.00 | 0.02 | 0.00 | 63 | 978.6 |
| 20260901095019 | 59 | 226 | 4.0 | 9.0 | 0.00 | 0.02 | 0.00 | 64 | 978.5 |
| 20260901094523 | 59 | 198 | 3.0 | 9.0 | 0.00 | 0.02 | 0.00 | 64 | 978.5 |
| 20260901094017 | 59 | 232 | 3.0 | 9.0 | 0.00 | 0.02 | 0.00 | 64 | 978.5 |
| 20260901093519 | 59 | 234 | 3.0 | 9.0 | 0.00 | 0.02 | 0.00 | 64 | 978.5 |
| 20260901093015 | 58 | 234 | 4.0 | 9.0 | 0.00 | 0.02 | 0.00 | 65 | 978.6 |
| 20260901092516 | 58 | 222 | 4.0 | 7.0 | 0.00 | 0.02 | 0.00 | 65 | 978.7 |
| 20260901092015 | 58 | 225 | 3.0 | 12.0 | 0.00 | 0.02 | 0.00 | 64 | 978.7 |
| 20260901091514 | 57 | 233 | 5.0 | 12.0 | 0.00 | 0.02 | 0.00 | 64 | 978.7 |
| 20260901091013 | 57 | 240 | 4.0 | 10.0 | 0.00 | 0.02 | 0.00 | 63 | 978.6 |
| 20260901090513 | 57 | 242 | 5.0 | 10.0 | 0.00 | 0.02 | 0.00 | 63 | 978.5 |
| 20260901090013 | 57 | 236 | 6.0 | 10.0 | 0.00 | 0.02 | 0.00 | 62 | 978.6 |
| 20260901085512 | 57 | 225 | 5.0 | 9.0 | 0.00 | 0.02 | 0.00 | 62 | 978.5 |
| 20260901085011 | 57 | 240 | 6.0 | 10.0 | 0.00 | 0.02 | 0.00 | 61 | 978.5 |
| 20260901084512 | 57 | 238 | 5.0 | 9.0 | 0.00 | 0.02 | 0.00 | 61 | 978.5 |
| 20260901084011 | 57 | 244 | 5.0 | 11.0 | 0.00 | 0.02 | 0.00 | 61 | 978.5 |
| 20260901083511 | 57 | 234 | 7.0 | 13.0 | 0.00 | 0.02 | 0.00 | 61 | 978.6 |
| 20260901083011 | 57 | 234 | 9.0 | 13.0 | 0.00 | 0.02 | 0.00 | 61 | 978.5 |
| 20260901082508 | 57 | 227 | 6.0 | 13.0 | 0.00 | 0.02 | 0.00 | 61 | 978.5 |
| 20260901082010 | 57 | 225 | 8.0 | 11.0 | 0.00 | 0.02 | 0.00 | 61 | 978.5 |
| 20260901081509 | 57 | 236 | 7.0 | 12.0 | 0.00 | 0.02 | 0.00 | 61 | 978.5 |
| 20260901081006 | 57 | 240 | 7.0 | 12.0 | 0.00 | 0.02 | 0.00 | 61 | 978.4 |
| 20260901080506 | 57 | 248 | 6.0 | 11.0 | 0.00 | 0.02 | 0.00 | 61 | 978.4 |
| 20260901080005 | 57 | 231 | 7.0 | 11.0 | 0.00 | 0.02 | 0.00 | 61 | 978.4 |
| 20260901075506 | 57 | 242 | 6.0 | 12.0 | 0.00 | 0.02 | 0.00 | 61 | 978.3 |
| 20260901075005 | 57 | 242 | 6.0 | 11.0 | 0.00 | 0.02 | 0.00 | 61 | 978.4 |
| 20260901074507 | 57 | 224 | 7.0 | 11.0 | 0.00 | 0.02 | 0.00 | 61 | 978.3 |
| 20260901074003 | 57 | 254 | 6.0 | 11.0 | 0.00 | 0.02 | 0.00 | 61 | 978.3 |
| 20260901073503 | 57 | 360 | 6.0 | 11.0 | 0.00 | 0.02 | 0.00 | 60 | 978.3 |
| 20260901073003 | 57 | 360 | 7.0 | 13.0 | 0.00 | 0.02 | 0.00 | 61 | 978.4 |
| 20260901072501 | 57 | 244 | 7.0 | 13.0 | 0.00 | 0.02 | 0.00 | 61 | 978.4 |
| 20260901072001 | 57 | 242 | 7.0 | 14.0 | 0.00 | 0.02 | 0.00 | 61 | 978.4 |
| 20260901071502 | 57 | 240 | 8.0 | 14.0 | 0.00 | 0.02 | 0.00 | 61 | 978.4 |
| 20260901071059 | 57 | 360 | 7.0 | 12.0 | 0.00 | 0.02 | 0.00 | 61 | 978.3 |
| 20260901070558 | 57 | 234 | 5.0 | 12.0 | 0.00 | 0.02 | 0.00 | 60 | 978.3 |
| 20260901070104 | 58 | 233 | 7.0 | 12.0 | 0.00 | 0.02 | 0.00 | 61 | 978.3 |
| 20260901065557 | 58 | 248 | 7.0 | 11.0 | 0.00 | 0.09 | 0.00 | 61 | 978.3 |
| 20260901065056 | 58 | 244 | 7.0 | 10.0 | 0.00 | 0.09 | 0.00 | 60 | 978.1 |
| 20260901064556 | 58 | 227 | 6.0 | 10.0 | 0.00 | 0.09 | 0.00 | 60 | 978.1 |
| 20260901064056 | 58 | 229 | 5.0 | 11.0 | 0.00 | 0.09 | 0.00 | 60 | 978.2 |
| 20260901063556 | 58 | 360 | 5.0 | 11.0 | 0.00 | 0.09 | 0.00 | 60 | 978.1 |
| 20260901063054 | 58 | 242 | 7.0 | 10.0 | 0.00 | 0.09 | 0.00 | 60 | 978.1 |
| 20260901062554 | 58 | 242 | 6.0 | 12.0 | 0.00 | 0.09 | 0.00 | 60 | 978.1 |
| 20260901062054 | 58 | 360 | 6.0 | 12.0 | 0.00 | 0.09 | 0.00 | 60 | 978.1 |
| 20260901061554 | 58 | 247 | 6.0 | 10.0 | 0.00 | 0.09 | 0.00 | 60 | 978.1 |
| 20260901061053 | 58 | 238 | 6.0 | 11.0 | 0.00 | 0.09 | 0.00 | 60 | 978.1 |
| 20260901060554 | 58 | 252 | 7.0 | 11.0 | 0.00 | 0.09 | 0.00 | 60 | 977.9 |
| 20260901060051 | 58 | 360 | 5.0 | 10.0 | 0.00 | 0.09 | 0.00 | 60 | 977.9 |
| 20260901055550 | 58 | 360 | 5.0 | 9.0 | 0.00 | 1.42 | 0.00 | 59 | 977.9 |
| 20260901055050 | 58 | 245 | 5.0 | 9.0 | 0.00 | 1.42 | 0.00 | 59 | 977.8 |
| 20260901054549 | 58 | 244 | 4.0 | 9.0 | 0.00 | 1.42 | 0.00 | 59 | 977.8 |
| 20260901054049 | 58 | 245 | 5.0 | 12.0 | 0.00 | 1.42 | 0.00 | 59 | 977.7 |
| 20260901053553 | 58 | 236 | 6.0 | 12.0 | 0.00 | 1.42 | 0.00 | 59 | 977.6 |
| 20260901053115 | 58 | 242 | 7.0 | 10.0 | 0.00 | 1.42 | 0.00 | 59 | 977.5 |
| 20260901052546 | 58 | 233 | 4.0 | 8.0 | 0.00 | 1.42 | 0.00 | 58 | 977.4 |
| 20260901052045 | 58 | 248 | 4.0 | 8.0 | 0.00 | 1.42 | 0.00 | 58 | 977.6 |
| 20260901051602 | 58 | 240 | 5.0 | 10.0 | 0.00 | 1.42 | 0.00 | 57 | 977.7 |
| 20260901051043 | 58 | 236 | 5.0 | 10.0 | 0.00 | 1.42 | 0.00 | 57 | 977.6 |
| 20260901050542 | 59 | 235 | 7.0 | 10.0 | 0.00 | 1.42 | 0.00 | 57 | 977.6 |
| 20260901050041 | 59 | 242 | 6.0 | 10.0 | 0.00 | 1.42 | 0.00 | 57 | 977.4 |
| 20260901045540 | 59 | 239 | 8.0 | 10.0 | 0.00 | 1.97 | 0.00 | 57 | 977.5 |
| 20260901045040 | 59 | 244 | 6.0 | 9.0 | 0.00 | 1.97 | 0.00 | 57 | 977.4 |
| 20260901044552 | 59 | 239 | 7.0 | 11.0 | 0.00 | 1.97 | 0.00 | 57 | 977.4 |
| 20260901044039 | 59 | 240 | 6.0 | 11.0 | 0.00 | 1.97 | 0.00 | 58 | 977.3 |
| 20260901043538 | 58 | 229 | 7.0 | 10.0 | 0.00 | 1.97 | 0.00 | 58 | 977.2 |
| 20260901043038 | 58 | 233 | 5.0 | 8.0 | 0.00 | 1.97 | 0.00 | 58 | 977.2 |
| 20260901042537 | 58 | 236 | 4.0 | 7.0 | 0.00 | 1.97 | 0.00 | 58 | 977.2 |
| 20260901042036 | 58 | 226 | 4.0 | 7.0 | 0.00 | 1.97 | 0.00 | 57 | 977.2 |
| 20260901041536 | 58 | 224 | 4.0 | 9.0 | 0.00 | 1.97 | 0.00 | 57 | 977.1 |
| 20260901041035 | 58 | 237 | 5.0 | 10.0 | 0.00 | 1.97 | 0.00 | 57 | 977.1 |
| 20260901040534 | 58 | 230 | 5.0 | 8.0 | 0.00 | 1.97 | 0.00 | 57 | 977.1 |
| 20260901040039 | 58 | 221 | 4.0 | 9.0 | 0.00 | 1.97 | 0.00 | 56 | 977.0 |
| 20260901035534 | 58 | 236 | 3.0 | 8.0 | 0.00 | 1.97 | 0.00 | 56 | 977.0 |
| 20260901035033 | 58 | 227 | 3.0 | 6.0 | 0.00 | 1.97 | 0.00 | 55 | 977.0 |
| 20260901034532 | 58 | 217 | 2.0 | 6.0 | 0.00 | 1.97 | 0.00 | 54 | 976.9 |
| 20260901034031 | 59 | 229 | 1.0 | 7.0 | 0.00 | 1.97 | 0.00 | 54 | 976.9 |
| 20260901033531 | 59 | 239 | 3.0 | 7.0 | 0.00 | 1.97 | 0.00 | 54 | 977.0 |
| 20260901033033 | 59 | 236 | 1.0 | 5.0 | 0.00 | 1.97 | 0.00 | 54 | 976.9 |
| 20260901032530 | 59 | 223 | 1.0 | 3.0 | 0.00 | 1.97 | 0.00 | 54 | 976.8 |
| 20260901032029 | 59 | 223 | 0.0 | 5.0 | 0.00 | 1.97 | 0.00 | 54 | 976.8 |
| 20260901031532 | 59 | 219 | 0.0 | 5.0 | 0.00 | 1.97 | 0.00 | 54 | 976.8 |
| 20260901031030 | 59 | 225 | 1.0 | 6.0 | 0.00 | 1.97 | 0.00 | 54 | 976.7 |
| 20260901030527 | 59 | 228 | 3.0 | 6.0 | 0.00 | 1.97 | 0.00 | 54 | 976.8 |
| 20260901030028 | 59 | 224 | 4.0 | 7.0 | 0.00 | 1.97 | 0.00 | 54 | 976.7 |
| 20260901025526 | 59 | 229 | 3.0 | 6.0 | 0.00 | 1.97 | 0.00 | 54 | 976.7 |
| 20260901025027 | 59 | 233 | 2.0 | 6.0 | 0.00 | 1.97 | 0.00 | 54 | 976.5 |
| 20260901024525 | 59 | 225 | 4.0 | 6.0 | 0.00 | 1.97 | 0.00 | 55 | 976.6 |
| 20260901024028 | 58 | 236 | 2.0 | 5.0 | 0.00 | 1.97 | 0.00 | 55 | 976.5 |
| 20260901023525 | 58 | 237 | 2.0 | 5.0 | 0.00 | 1.97 | 0.00 | 55 | 976.6 |
| 20260901023036 | 58 | 240 | 2.0 | 5.0 | 0.00 | 1.97 | 0.00 | 54 | 976.5 |
| 20260901022523 | 59 | 234 | 2.0 | 5.0 | 0.00 | 1.97 | 0.00 | 53 | 976.5 |
| 20260901022023 | 59 | 240 | 3.0 | 6.0 | 0.00 | 1.97 | 0.00 | 53 | 976.5 |
| 20260901021524 | 59 | 237 | 3.0 | 6.0 | 0.00 | 1.97 | 0.00 | 53 | 976.4 |
| 20260901010526 | 62 | 360 | 8.0 | 12.0 | 0.00 | 1.97 | 0.02 | 51 | 975.6 |
| 20260901010024 | 62 | 360 | 6.0 | 14.0 | 0.00 | 1.97 | 0.02 | 50 | 975.6 |
| 20260901005525 | 63 | 244 | 8.0 | 14.0 | 0.00 | 1.97 | 0.02 | 50 | 975.4 |
| 20260901005025 | 63 | 218 | 9.0 | 16.0 | 0.00 | 1.97 | 0.02 | 49 | 975.2 |
| 20260901004523 | 63 | 240 | 11.0 | 16.0 | 0.00 | 1.97 | 0.02 | 49 | 975.1 |
| 20260901004021 | 63 | 232 | 11.0 | 16.0 | 0.00 | 1.97 | 0.02 | 49 | 975.2 |
| 20260901003520 | 63 | 234 | 11.0 | 18.0 | 0.01 | 1.97 | 0.02 | 50 | 975.1 |
| 20260901003019 | 63 | 234 | 11.0 | 18.0 | 0.02 | 1.97 | 0.02 | 51 | 974.9 |
| 20260831232056 | 68 | 232 | 15.0 | 23.0 | 0.00 | 1.95 | 1.40 | 52 | 973.3 |
| 20260831231557 | 68 | 229 | 15.0 | 32.0 | 0.00 | 1.95 | 1.40 | 53 | 973.2 |
| 20260831231056 | 69 | 269 | 20.0 | 33.0 | 0.00 | 1.95 | 1.40 | 52 | 973.2 |
| 20260831230554 | 70 | 234 | 20.0 | 33.0 | 0.00 | 1.95 | 1.40 | 52 | 973.1 |
| 20260831230108 | 70 | 218 | 20.0 | 29.0 | 0.00 | 1.95 | 1.40 | 51 | 972.9 |
| 20260831225557 | 71 | 240 | 18.0 | 31.0 | 0.00 | 1.95 | 1.40 | 50 | 972.8 |
| 20260831225054 | 71 | 229 | 20.0 | 31.0 | 0.00 | 1.95 | 1.40 | 50 | 972.7 |
| 20260831224554 | 71 | 226 | 20.0 | 33.0 | 0.00 | 1.95 | 1.40 | 50 | 972.5 |
| 20260831224055 | 71 | 218 | 19.0 | 33.0 | 0.00 | 1.95 | 1.40 | 50 | 972.4 |
| 20260831223558 | 71 | 239 | 20.0 | 31.0 | 0.00 | 1.95 | 1.40 | 50 | 972.4 |
| 20260831223055 | 71 | 245 | 17.0 | 28.0 | 0.00 | 1.95 | 1.40 | 50 | 972.3 |
| 20260831222555 | 71 | 215 | 14.0 | 28.0 | 0.00 | 1.95 | 1.40 | 50 | 972.4 |
| 20260831222055 | 72 | 292 | 11.0 | 38.0 | 0.00 | 1.95 | 1.40 | 49 | 972.3 |
| 20260831221602 | 72 | 214 | 25.0 | 38.0 | 0.00 | 1.95 | 1.40 | 49 | 972.2 |
| 20260831221053 | 72 | 224 | 12.0 | 33.0 | 0.00 | 1.95 | 1.40 | 49 | 972.4 |
| 20260831220553 | 72 | 208 | 18.0 | 31.0 | 0.00 | 1.95 | 1.40 | 48 | 972.4 |
| 20260831215556 | 72 | 235 | 11.0 | 26.0 | 0.00 | 1.95 | 1.40 | 49 | 972.2 |
| 20260831215053 | 72 | 219 | 13.0 | 26.0 | 0.00 | 1.95 | 1.40 | 49 | 972.1 |
| 20260831214553 | 72 | 227 | 10.0 | 31.0 | 0.00 | 1.95 | 1.40 | 49 | 971.9 |
| 20260831214053 | 71 | 249 | 15.0 | 31.0 | 0.00 | 1.95 | 1.40 | 49 | 972.1 |
| 20260831213553 | 72 | 221 | 9.0 | 28.0 | 0.00 | 1.95 | 1.40 | 48 | 972.3 |
| 20260831213058 | 72 | 223 | 14.0 | 28.0 | 0.00 | 1.95 | 1.40 | 46 | 972.4 |
| 20260831212552 | 73 | 252 | 8.0 | 31.0 | 0.00 | 1.95 | 1.40 | 46 | 972.4 |
| 20260831212056 | 73 | 223 | 13.0 | 22.0 | 0.00 | 1.95 | 1.40 | 45 | 972.3 |
| 20260831211602 | 72 | 227 | 5.0 | 12.0 | 0.00 | 1.95 | 1.40 | 47 | 972.0 |
| 20260831211051 | 72 | 227 | 6.0 | 12.0 | 0.00 | 1.95 | 1.40 | 46 | 971.9 |
| 20260831210551 | 72 | 232 | 4.0 | 10.0 | 0.00 | 1.95 | 1.40 | 46 | 971.8 |
| 20260831210050 | 72 | 221 | 5.0 | 10.0 | 0.00 | 1.95 | 1.40 | 46 | 971.8 |
| 20260831205550 | 72 | 238 | 3.0 | 15.0 | 0.00 | 1.95 | 1.40 | 45 | 971.9 |
| 20260831205050 | 73 | 215 | 5.0 | 15.0 | 0.00 | 1.95 | 1.40 | 45 | 972.0 |
| 20260831204554 | 73 | 206 | 4.0 | 14.0 | 0.00 | 1.95 | 1.40 | 45 | 972.1 |
| 20260831204050 | 73 | 230 | 7.0 | 14.0 | 0.00 | 1.95 | 1.40 | 45 | 972.1 |
| 20260831203550 | 73 | 222 | 7.0 | 25.0 | 0.00 | 1.95 | 1.40 | 44 | 972.2 |
| 20260831203050 | 73 | 221 | 9.0 | 18.0 | 0.00 | 1.95 | 1.40 | 44 | 972.4 |
| 20260831202551 | 73 | 229 | 7.0 | 17.0 | 0.00 | 1.95 | 1.40 | 43 | 972.4 |
| 20260831202048 | 73 | 192 | 8.0 | 20.0 | 0.00 | 1.95 | 1.40 | 43 | 972.2 |
| 20260831201548 | 73 | 198 | 8.0 | 20.0 | 0.00 | 1.95 | 1.40 | 42 | 972.2 |
| 20260831201049 | 73 | 233 | 7.0 | 15.0 | 0.00 | 1.95 | 1.40 | 42 | 972.2 |
| 20260831200547 | 73 | 198 | 6.0 | 11.0 | 0.00 | 1.95 | 1.40 | 43 | 972.4 |
| 20260831200053 | 73 | 182 | 5.0 | 10.0 | 0.00 | 1.95 | 1.40 | 43 | 972.6 |
| 20260831195544 | 72 | 197 | 3.0 | 16.0 | 0.00 | 1.95 | 1.40 | 44 | 972.7 |
| 20260831195044 | 72 | 220 | 8.0 | 16.0 | 0.00 | 1.95 | 1.40 | 44 | 972.8 |
| 20260831194544 | 72 | 148 | 5.0 | 19.0 | 0.00 | 1.95 | 1.40 | 44 | 972.8 |
| 20260831194043 | 71 | 111 | 8.0 | 19.0 | 0.00 | 1.95 | 1.40 | 44 | 973.0 |
| 20260831193543 | 71 | 234 | 4.0 | 18.0 | 0.00 | 1.95 | 1.40 | 44 | 973.1 |
| 20260831193045 | 71 | 190 | 3.0 | 8.0 | 0.00 | 1.95 | 1.40 | 44 | 973.1 |
| 20260831192542 | 71 | 243 | 2.0 | 13.0 | 0.00 | 1.95 | 1.40 | 43 | 973.2 |
| 20260831192045 | 71 | 209 | 4.0 | 13.0 | 0.00 | 1.95 | 1.40 | 42 | 973.3 |
| 20260831191542 | 72 | 196 | 5.0 | 13.0 | 0.00 | 1.95 | 1.40 | 42 | 973.4 |
| 20260831191042 | 72 | 204 | 5.0 | 13.0 | 0.00 | 1.95 | 1.40 | 41 | 973.4 |
| 20260831190542 | 72 | 182 | 6.0 | 13.0 | 0.00 | 1.95 | 1.40 | 40 | 973.6 |
| 20260831190100 | 72 | 200 | 6.0 | 11.0 | 0.00 | 1.95 | 1.40 | 40 | 973.5 |
| 20260831185542 | 72 | 232 | 5.0 | 13.0 | 0.00 | 1.95 | 1.40 | 40 | 973.7 |
| 20260831185041 | 72 | 198 | 8.0 | 19.0 | 0.00 | 1.95 | 1.40 | 39 | 973.6 |
| 20260831184542 | 72 | 238 | 9.0 | 17.0 | 0.00 | 1.95 | 1.40 | 39 | 973.8 |
| 20260831184041 | 72 | 227 | 7.0 | 16.0 | 0.00 | 1.95 | 1.40 | 39 | 974.1 |
| 20260831183541 | 73 | 190 | 5.0 | 20.0 | 0.00 | 1.95 | 1.40 | 40 | 973.8 |
| 20260831183041 | 73 | 186 | 9.0 | 20.0 | 0.00 | 1.95 | 1.40 | 38 | 974.0 |
| 20260831182541 | 73 | 218 | 10.0 | 19.0 | 0.00 | 1.95 | 1.40 | 38 | 974.1 |
| 20260831182040 | 73 | 209 | 5.0 | 15.0 | 0.00 | 1.95 | 1.40 | 41 | 974.1 |
| 20260831181540 | 73 | 190 | 7.0 | 19.0 | 0.00 | 1.95 | 1.40 | 41 | 974.2 |
| 20260831181040 | 74 | 191 | 9.0 | 19.0 | 0.00 | 1.95 | 1.40 | 40 | 974.2 |
| 20260831180538 | 73 | 186 | 10.0 | 22.0 | 0.00 | 1.95 | 1.40 | 41 | 974.4 |
| 20260831180046 | 73 | 186 | 8.0 | 22.0 | 0.00 | 1.95 | 1.40 | 42 | 974.4 |
| 20260831175537 | 73 | 199 | 10.0 | 22.0 | 0.00 | 1.95 | 1.40 | 42 | 974.5 |
| 20260831175037 | 73 | 205 | 6.0 | 18.0 | 0.00 | 1.95 | 1.40 | 43 | 974.7 |
| 20260831174540 | 72 | 182 | 9.0 | 15.0 | 0.00 | 1.95 | 1.40 | 41 | 974.9 |
| 20260831174036 | 72 | 200 | 7.0 | 20.0 | 0.00 | 1.95 | 1.40 | 43 | 975.1 |
| 20260831173534 | 72 | 193 | 9.0 | 20.0 | 0.00 | 1.95 | 1.40 | 43 | 975.1 |
| 20260831173035 | 73 | 197 | 8.0 | 17.0 | 0.00 | 1.95 | 1.40 | 45 | 975.1 |
| 20260831172535 | 73 | 244 | 8.0 | 19.0 | 0.00 | 1.95 | 1.40 | 45 | 975.3 |
| 20260831172034 | 72 | 235 | 9.0 | 19.0 | 0.00 | 1.95 | 1.40 | 48 | 975.4 |
| 20260831171534 | 72 | 208 | 5.0 | 17.0 | 0.00 | 1.95 | 1.40 | 49 | 975.4 |
| 20260831171033 | 72 | 187 | 5.0 | 17.0 | 0.00 | 1.95 | 1.40 | 48 | 975.5 |
| 20260831170532 | 72 | 189 | 6.0 | 16.0 | 0.00 | 1.95 | 1.40 | 49 | 975.5 |
| 20260831170031 | 72 | 186 | 7.0 | 16.0 | 0.00 | 1.95 | 1.40 | 49 | 975.6 |
| 20260831165535 | 72 | 76 | 6.0 | 16.0 | 0.00 | 1.95 | 1.40 | 49 | 975.7 |
| 20260831165031 | 72 | 222 | 6.0 | 16.0 | 0.00 | 1.95 | 1.40 | 49 | 975.7 |
| 20260831164545 | 72 | 182 | 6.0 | 15.0 | 0.00 | 1.95 | 1.40 | 49 | 975.7 |
| 20260831164030 | 72 | 177 | 5.0 | 13.0 | 0.00 | 1.95 | 1.40 | 50 | 975.8 |
| 20260831163529 | 71 | 180 | 7.0 | 19.0 | 0.00 | 1.95 | 1.40 | 51 | 976.0 |
| 20260831163028 | 71 | 144 | 10.0 | 20.0 | 0.00 | 1.95 | 1.40 | 50 | 976.0 |
| 20260831162527 | 71 | 170 | 7.0 | 15.0 | 0.00 | 1.95 | 1.40 | 51 | 976.1 |
| 20260831162026 | 71 | 200 | 6.0 | 15.0 | 0.00 | 1.95 | 1.40 | 50 | 976.2 |
| 20260831161525 | 71 | 360 | 7.0 | 15.0 | 0.00 | 1.95 | 1.40 | 51 | 976.1 |
| 20260831161025 | 71 | 196 | 7.0 | 13.0 | 0.00 | 1.95 | 1.40 | 50 | 976.3 |
| 20260831160524 | 71 | 236 | 5.0 | 13.0 | 0.00 | 1.95 | 1.40 | 48 | 976.3 |
| 20260831160023 | 71 | 215 | 6.0 | 16.0 | 0.00 | 1.95 | 1.40 | 50 | 976.3 |
| 20260831155524 | 71 | 209 | 3.0 | 11.0 | 0.00 | 1.95 | 1.40 | 53 | 976.2 |
| 20260831155021 | 71 | 190 | 4.0 | 11.0 | 0.00 | 1.95 | 1.40 | 52 | 976.3 |
| 20260831154519 | 70 | 198 | 5.0 | 11.0 | 0.00 | 1.95 | 1.40 | 52 | 976.3 |
| 20260831154020 | 70 | 188 | 4.0 | 9.0 | 0.00 | 1.95 | 1.40 | 50 | 976.2 |
| 20260831153517 | 70 | 177 | 3.0 | 8.0 | 0.00 | 1.95 | 1.40 | 45 | 976.3 |
| 20260831153014 | 70 | 209 | 4.0 | 8.0 | 0.00 | 1.95 | 1.40 | 44 | 976.3 |
| 20260831152515 | 69 | 178 | 3.0 | 10.0 | 0.00 | 1.95 | 1.40 | 47 | 976.4 |
| 20260831152012 | 69 | 194 | 6.0 | 11.0 | 0.00 | 1.95 | 1.40 | 46 | 976.6 |
| 20260831151512 | 69 | 237 | 4.0 | 9.0 | 0.00 | 1.95 | 1.40 | 47 | 976.5 |
| 20260831151009 | 69 | 171 | 4.0 | 10.0 | 0.00 | 1.95 | 1.40 | 47 | 976.5 |
| 20260831150510 | 68 | 194 | 4.0 | 12.0 | 0.00 | 1.95 | 1.40 | 50 | 976.8 |
| 20260831150009 | 68 | 215 | 4.0 | 12.0 | 0.00 | 1.95 | 1.40 | 50 | 976.7 |
| 20260831145504 | 68 | 221 | 4.0 | 12.0 | 0.00 | 1.95 | 1.40 | 52 | 976.7 |
| 20260831145002 | 67 | 220 | 7.0 | 12.0 | 0.00 | 1.95 | 1.40 | 52 | 976.7 |
| 20260831144505 | 67 | 240 | 5.0 | 15.0 | 0.00 | 1.95 | 1.40 | 54 | 976.5 |
| 20260831144100 | 66 | 234 | 8.0 | 15.0 | 0.00 | 1.95 | 1.40 | 54 | 976.6 |
| 20260831143559 | 66 | 224 | 7.0 | 14.0 | 0.00 | 1.95 | 1.40 | 55 | 976.6 |
| 20260831143103 | 65 | 228 | 3.0 | 10.0 | 0.00 | 1.95 | 1.40 | 56 | 976.6 |
| 20260831142556 | 65 | 226 | 4.0 | 13.0 | 0.00 | 1.95 | 1.40 | 57 | 976.5 |
| 20260831142058 | 65 | 230 | 6.0 | 13.0 | 0.00 | 1.95 | 1.40 | 57 | 976.5 |
| 20260831141603 | 64 | 218 | 2.0 | 7.0 | 0.00 | 1.95 | 1.40 | 58 | 976.5 |
| 20260831141053 | 64 | 231 | 4.0 | 8.0 | 0.00 | 1.95 | 1.40 | 59 | 976.7 |
| 20260831140550 | 63 | 231 | 3.0 | 8.0 | 0.00 | 1.95 | 1.40 | 61 | 976.7 |
| 20260831140052 | 63 | 233 | 3.0 | 8.0 | 0.00 | 1.95 | 1.40 | 62 | 976.6 |
| 20260831135551 | 62 | 220 | 2.0 | 7.0 | 0.00 | 1.95 | 1.40 | 62 | 976.6 |
| 20260831135050 | 62 | 225 | 3.0 | 7.0 | 0.00 | 1.95 | 1.40 | 63 | 976.4 |
| 20260831134554 | 62 | 222 | 1.0 | 5.0 | 0.00 | 1.95 | 1.40 | 63 | 976.5 |
| 20260831134049 | 61 | 229 | 1.0 | 5.0 | 0.00 | 1.95 | 1.40 | 64 | 976.4 |
| 20260831133549 | 61 | 229 | 2.0 | 5.0 | 0.00 | 1.95 | 1.40 | 63 | 976.5 |
| 20260831133049 | 61 | 210 | 3.0 | 5.0 | 0.00 | 1.95 | 1.40 | 64 | 976.4 |
| 20260831132549 | 61 | 217 | 2.0 | 4.0 | 0.00 | 1.95 | 1.40 | 65 | 976.3 |
| 20260831132049 | 61 | 225 | 1.0 | 4.0 | 0.00 | 1.95 | 1.40 | 65 | 976.4 |
| 20260831131552 | 60 | 225 | 1.0 | 6.0 | 0.00 | 1.95 | 1.40 | 65 | 976.4 |
| 20260831131048 | 60 | 225 | 2.0 | 6.0 | 0.00 | 1.95 | 1.40 | 65 | 976.4 |
| 20260831130548 | 60 | 227 | 3.0 | 4.0 | 0.00 | 1.95 | 1.40 | 65 | 976.4 |
| 20260831130049 | 60 | 229 | 1.0 | 4.0 | 0.00 | 1.95 | 1.40 | 66 | 976.3 |
| 20260831125549 | 60 | 223 | 1.0 | 5.0 | 0.00 | 1.95 | 1.40 | 66 | 976.3 |
| 20260831125048 | 60 | 224 | 2.0 | 5.0 | 0.00 | 1.95 | 1.40 | 66 | 976.3 |
| 20260831124549 | 60 | 223 | 0.0 | 5.0 | 0.00 | 1.95 | 1.40 | 67 | 976.3 |
| 20260831124048 | 60 | 223 | 0.0 | 5.0 | 0.00 | 1.95 | 1.40 | 67 | 976.2 |
| 20260831123547 | 60 | 219 | 2.0 | 5.0 | 0.00 | 1.95 | 1.40 | 67 | 976.2 |
| 20260831123047 | 60 | 221 | 1.0 | 5.0 | 0.00 | 1.95 | 1.40 | 67 | 976.2 |
| 20260831122549 | 60 | 207 | 2.0 | 9.0 | 0.00 | 1.95 | 1.40 | 67 | 976.2 |
| 20260831122047 | 60 | 228 | 4.0 | 9.0 | 0.00 | 1.95 | 1.40 | 68 | 976.2 |